Regional Weather Roundup
Issued by NWS

Home | Current Version | Previous Version | Text Only | Print | Product List | Glossary On
Versions: 1 2 3 4 5 6 7 8 9 10 11 12 13 14 15 16 17 18 19 20 21 22 23 24 25 26 27 28 29 30 31 32 33 34 35 36 37 38 39 40 41 42 43 44 45 46 47 48 49 50
000
ASUS45 KREV 030810
RWRNV
NEVADA REGIONAL WEATHER ROUNDUP
NATIONAL WEATHER SERVICE RENO NV
100 AM PDT TUE MAY 03 2016

NOTE: "FAIR" INDICATES FEW OR NO CLOUDS BELOW 12,000 FEET WITH NO
SIGNIFICANT WEATHER AND/OR OBSTRUCTIONS TO VISIBILITY.

NVZ001-003-004-030900-
WESTERN NEVADA

CITY           SKY/WX    TMP DP  RH WIND       PRES   REMARKS
RENO           CLEAR     52  36  54 CALM      30.13S
CARSON CITY    FAIR      45  36  70 NE3       30.14R
MINDEN         FAIR      39  37  93 NE6       30.15R
SLIDE MTN        N/A     37  25  60 E18         N/A
FALLON         CLEAR     57  31  37 SE12      30.08S
LOVELOCK       CLEAR     47  22  37 S3        30.10R
$$

NVZ002-CAZ072-073-030900-
NORTHERN AND CENTRAL SIERRA

CITY           SKY/WX    TMP DP  RH WIND       PRES   REMARKS
S. LAKE TAHOE  PTCLDY    37  33  85 S3        30.19S
TRUCKEE        PTCLDY    36  32  87 CALM      30.20S
SQUAW VLY 8000   N/A     37  32  81 SW1         N/A
SUSANVILLE     CLEAR     46  37  71 W3        30.13R
BLUE CANYON    PTCLDY    49  35  58 NE3       30.17S
MAMMOTH LAKES  FAIR      35  29  77 N5        30.24R
BRIDGEPORT     FAIR      36  30  79 CALM      30.20R
$$

NVZ030-031-036-030900-
NORTHERN NEVADA

CITY           SKY/WX    TMP DP  RH WIND       PRES   REMARKS
ELKO           CLEAR     45  35  68 E5        30.19R
WINNEMUCCA     CLEAR     41  33  73 E6        30.13S
WENDOVER       CLEAR     48  36  61 NE5       30.18S
$$

NVZ035-037-030900-
CENTRAL NEVADA

CITY           SKY/WX    TMP DP  RH WIND       PRES   REMARKS
ELY            CLEAR     35  31  85 S10       30.24S
EUREKA           N/A     39  33  79 S7        30.21R
$$

NVZ013-014-030900-
SOUTH CENTRAL NEVADA

CITY           SKY/WX    TMP DP  RH WIND       PRES   REMARKS
TONOPAH        CLEAR     45  34  65 N10       30.20S
$$

NVZ017-020-022-030900-
SOUTHERN NEVADA

CITY           SKY/WX    TMP DP  RH WIND       PRES   REMARKS
LAS VEGAS      CLEAR     69  36  29 N7        30.01S
N. LAS VEGAS   CLEAR     67  37  33 N7        30.04S
NELLIS AFB     CLEAR     64  40  40 NE6       30.03S
HENDERSON      CLEAR     59  46  62 S5        30.07S
MERCURY        CLEAR     57  41  55 E7        30.09S
$$



USA.gov is the U.S. government's official web portal to all federal, state and local government web resources and services.